Miscellaneous Local Product
Issued by NWS Hastings, NE

Home | Current Version | Previous Version | Text Only | Print | Product List | Glossary Off
Versions: 1 2 3 4 5 6 7 8 9 10 11 12 13 14 15 16 17 18 19 20 21 22 23 24 25 26 27 28 29 30 31 32 33 34 35 36 37 38 39 40 41 42 43 44 45 46 47 48 49 50

000
AXUS43 KGID 191302
MISGRI

GID CWA HOURLY WEATHER ROUNDUP
NATIONAL WEATHER SERVICE HASTINGS NE
800 AM CDT THU OCT 19 2017

NOTE: "FAIR" INDICATES FEW OR NO CLOUDS BELOW 12,000 FEET WITH NO
SIGNIFICANT WEATHER AND/OR OBSTRUCTIONS TO VISIBILITY.

...SOUTH CENTRAL NEBRASKA...

CITY           SKY/WX    TMP DP  RH WIND       PRES   REMARKS
GRAND ISLAND   CLOUDY    38  37  97 W5        30.06S WCI  34
HASTINGS       CLOUDY    40  34  79 CALM      30.06S
KEARNEY        CLOUDY    37  33  85 CALM      30.05F
ORD            CLOUDY    31  29  92 S3        30.04F
YORK           CLEAR     39  39 100 CALM      30.06S
AURORA         CLOUDY    38  35  89 CALM      30.05S
LEXINGTON      CLOUDY    34  32  91 W3        30.06R
HOLDREGE       CLOUDY    36  34  90 CALM      30.06R
HEBRON         CLEAR     40  39  96 CALM      30.05S

...NEBRASKA PANHANDLE...

CITY           SKY/WX    TMP DP  RH WIND       PRES   REMARKS
CHADRON        CLOUDY    46  27  47 CALM      29.93S
ALLIANCE       CLOUDY    32  28  85 S6        30.00S WCI  26
SCOTTSBLUFF    CLEAR     34  28  79 E6        30.00F WCI  29
SIDNEY         CLOUDY    42  32  67 S12       30.04F

...WESTERN AND NORTH CENTRAL NEBRASKA...

CITY           SKY/WX    TMP DP  RH WIND       PRES   REMARKS
VALENTINE      CLOUDY    44  34  67 SW6       29.98S
AINSWORTH      CLOUDY    45  36  70 S10       30.01S
ONEILL         CLOUDY    42  37  82 S7        30.02F
BROKEN BOW     CLOUDY    34  31  88 CALM      30.04S
IMPERIAL       CLOUDY    35  30  82 W7        30.06F WCI  29
NORTH PLATTE   CLOUDY    34  31  88 CALM      30.06S
MCCOOK         CLOUDY    34  33  96 SW3       30.06S

...EASTERN NEBRASKA...

CITY           SKY/WX    TMP DP  RH WIND       PRES   REMARKS
NORFOLK        CLOUDY    35  35 100 S3        30.04F
SO SIOUX CITY  CLOUDY    37  36  96 SE5       30.06S WCI  33
TEKAMAH        CLEAR     38  36  92 CALM      30.07R
COLUMBUS       CLOUDY    36  34  92 CALM      30.06S
ALBION         CLOUDY    35  33  90 CALM      30.05S
OMAHA EPPLEY   PTCLDY    44  39  82 CALM      30.08R
OFFUTT AFB     CLEAR     41  40  97 E3        30.06S
MILLARD        CLEAR     46  45  97 CALM      30.07S
LINCOLN        CLEAR     44  40  85 CALM      30.07S
NEBRASKA CITY  CLEAR     47  47 100 CALM      30.07S FOG
BEATRICE       CLEAR     43  42  97 CALM      30.06R
FALLS CITY     CLEAR     45  45 100 SE5       30.07R

...NORTHERN KANSAS...

CITY           SKY/WX    TMP DP  RH WIND       PRES   REMARKS
GOODLAND       CLOUDY    34  32  92 W3        30.07S
HILL CITY      CLEAR     38  36  92 W3        30.06S
NORTON         SUNNY     34  28  80 CALM      30.05R
PHILLIPSBURG   CLEAR     37  37 100 W5        30.05S WCI  34
HAYS           CLEAR     41  37  86 NW5       30.05S
RUSSELL        CLEAR     43  40  89 W3        30.03S
CONCORDIA      CLEAR     43  43 100 CALM      30.04R
SALINA         CLEAR     51  47  86 CALM      30.05S
TOPEKA         CLEAR     47  47 100 CALM      30.08S FOG



USA.gov is the U.S. government's official web portal to all federal, state and local government web resources and services.